Find Kosmos-1035

NORAD ID: 11044 Int'l Des: 1978-091 Owner: GUKOSR Country: SU operational
LEOCIRCULAR

实时位置

正在加载3D地球...

关于 Kosmos-1035

正在加载描述...

即将过境

Passes for default location (London). Set your location on the main map for personalized predictions.

高度历史

Loading altitude history...

两行轨道根数

1 11044U 78091B 26107.15599340 .00000016 00000-0 19681-3 0 9992
2 11044 74.0356 172.7773 0049147 354.1295 33.1114 12.55705672178969
Epoch: Apr 17, 2026 • Age: 15 hours

当前状态

高度 1438.2 km
速度 7.15 km/s
星下点 60.37°N, 67.49°E
发射日期 Oct 4, 1978
运行时间 47.5 years
类型 other

技术详情

分类 Payload
质量 60.00 kg
干质量 60.00 kg
总质量 60.00 kg
长度 0.80 m
直径 0.80 m
跨度 0.80 m
形状 Poly
制造商 NPOPM
平台类型 Strela-1 11F625
阶段状态 In Orbit
所有者/国家 GUKOSR/SU

Most Searched